Regional Weather Roundup
Issued by NWS

Home | Current Version | Previous Version | Graphics & Text | Print | Product List | Glossary On
Versions: 1 2 3 4 5 6 7 8 9 10 11 12 13 14 15 16 17 18 19 20 21 22 23 24 25 26 27
000
ASUS45 KCYS 160910
RWRWY

WYOMING REGIONAL WEATHER ROUNDUP
NATIONAL WEATHER SERVICE CHEYENNE WY
300 AM MDT WED APR 16 2014

NOTE:  "FAIR" INDICATES FEW OR NO CLOUDS BELOW 12,000 FEET
WITH NO SIGNIFICANT WEATHER AND/OR OBSTRUCTIONS TO VISIBILITY.

WYZ001-161000-
YELLOWSTONE NATIONAL PARK

CITY           SKY/WX    TMP DP  RH WIND       PRES   REMARKS
LK YELLOWSTONE   N/A     14  12  92 CALM      29.95R
W YELLOWSTONE  NOT AVBL

$$
WYZ002>013-054>058-071-098>099-161000-
NORTHERN WYOMING

CITY           SKY/WX    TMP DP  RH WIND       PRES   REMARKS
JACKSON        CLEAR     27  21  80 N5        29.94R WCI  21
CODY           PTCLDY    34  25  69 CALM      29.86R
GREYBULL       PTCLDY    37  31  78 NW24G30   29.85R WCI  26
WORLAND        PTCLDY    36  29  75 N13       29.85R WCI  27
SHERIDAN       CLOUDY    38  32  79 NW26      29.81R WCI  26
BUFFALO        CLOUDY    36  28  73 NW23G32   29.79R WCI  24
GILLETTE       CLOUDY    36  33  89 NW25G35   29.73S WCI  24
HULETT         LGT RAIN N/A N/A N/A NW8       29.71
NEWCASTLE      RAIN      34  34 100 NW14      29.70  WCI  24

$$
WYZ014>020-022>026-101>103-161000-
CENTRAL WYOMING

CITY           SKY/WX    TMP DP  RH WIND       PRES   REMARKS
BIG PINEY      CLEAR     23  15  71 NW12      29.92R WCI  12
PINEDALE       SUNNY     21  16  79 W10       29.91S WCI  10
DUBOIS         FAIR      27  16  63 W22       29.87R WCI  12
LANDER         MOCLDY    33  28  81 S10       29.86R WCI  25
RIVERTON       PTCLDY    33  25  72 CALM      29.87R
CASPER         CLOUDY    33  30  88 SW7       29.81R WCI  27
DOUGLAS        CLOUDY    36  32  85 NW18      29.77R WCI  26

$$
WYZ021-027>030-104>119-161000-
SOUTHERN WYOMING

CITY           SKY/WX    TMP DP  RH WIND       PRES   REMARKS
EVANSTON       MOCLDY    33  11  39 W13       29.96S WCI  24
FORT BRIDGER   FAIR      32  13  45 CALM      29.98S
ROCK SPRINGS   CLEAR     31  19  61 W13       29.91S WCI  21
DIXON          CLOUDY    35  26  68 NW7       29.92R WCI  29
RAWLINS        MOCLDY    30  23  75 NW9       29.87R WCI  22
SARATOGA       CLOUDY    32  28  86 NW10      29.86R WCI  24
LARAMIE        NOT AVBL
CHEYENNE       MOCLDY    36  27  69 W18G29    29.74R WCI  26
TORRINGTON     CLOUDY    39  33  79 W16       29.71R WCI  30
PINE BLUFFS    FAIR      41  30  65 NW28G33   29.73R

$$



USA.gov is the U.S. government's official web portal to all federal, state and local government web resources and services.